Regional Weather Roundup
Issued by NWS Green Bay, WI

Home | Current Version | Previous Version | Text Only | Print | Product List | Glossary On
Versions: 1 2 3 4 5 6 7 8 9 10 11 12 13 14 15 16 17 18 19 20 21 22 23 24 25 26 27 28 29 30 31 32 33 34 35 36 37 38 39 40 41 42 43 44 45 46 47 48 49 50
000
ASUS43 KGRB 240511
RWRGRB

NORTH-CENTRAL AND NORTHEAST WISCONSIN REGIONAL WEATHER ROUNDUP
NATIONAL WEATHER SERVICE GREEN BAY WI
1200 AM CDT TUE MAY 24 2016

WIZ005-009-010>012-018-019-240600-
NORTH CENTRAL WISCONSIN

CITY           SKY/WX    TMP DP  RH WIND       PRES   REMARKS
IRONWOOD       CLOUDY    64  63  94 S8        29.80R
MANITOWISH WTR CLOUDY    61  61 100 SE5       29.86S
ARBOR VITAE    CLOUDY    64  59  85 NW3       29.87R
EAGLE RIVER      N/A     67  43  42 W3        29.86R
LAND O LAKES   CLOUDY    66  56  70 CALM      29.87R
RHINELANDER    CLOUDY    70  45  40 SW9       29.88R
PHILLIPS       CLOUDY    64  61  90 CALM      29.86R
ANTIGO         PTCLDY    59  47  63 CALM      29.88S
TOMAHAWK       CLOUDY    65  47  52 CALM      29.88R
MERRILL        CLOUDY    67  48  49 SW6       29.88R
$$

WIZ013-073-240600-
NORTHEAST WISCONSIN

CITY           SKY/WX    TMP DP  RH WIND       PRES   REMARKS
IRON MOUNTAIN  CLOUDY    61  47  59 SE5       29.85R
MARINETTE      CLOUDY    60  46  59 SW6       29.88S
OCONTO         PTCLDY    62  49  63 S3        29.87R
$$

WIZ017-030-035>037-045-240600-
CENTRAL WISCONSIN

CITY           SKY/WX    TMP DP  RH WIND       PRES   REMARKS
MEDFORD        CLOUDY    64  53  67 S5        29.87S
WAUSAU         CLOUDY    70  47  43 SW7       29.87R
MOSINEE        MOCLDY    64  45  48 W7        29.89R
MARSHFIELD     MOCLDY    65  51  60 CALM      29.88R
WISC RAPIDS    CLEAR     68  45  43 CALM      29.88R
STEVENS POINT  PTCLDY    67  45  45 SW3       29.88R
WAUPACA        CLEAR     63  50  62 CALM      29.88R
SHAWANO        CLEAR     67  48  50 S5        29.87R
CLINTONVILLE   CLEAR     63  48  59 S6        29.87R
WAUTOMA        CLEAR     58  50  75 CALM      29.88R
$$

WIZ038-039-048-051-240600-
FOX VALLEY

CITY           SKY/WX    TMP DP  RH WIND       PRES   REMARKS
NWS GREEN BAY  PTCLDY    64  43  46 S7        29.88S
APPLETON       CLEAR     63  45  51 S6        29.87S
OSHKOSH        CLEAR     60  46  59 S9        29.88R
FOND DU LAC    CLEAR     63  44  50 S6        29.89S
$$

WIZ022-050-052-240600-
EAST CENTRAL WISCONSIN

CITY           SKY/WX    TMP DP  RH WIND       PRES   REMARKS
EPHRAIM        FAIR      64  36  35 S9        29.88R
STURGEON BAY   NOT AVBL
MANITOWOC      CLOUDY    62  37  39 S9        29.91R
SHEBOYGAN      CLOUDY    59  39  47 S8        29.91R
$$

LMZ563-521-522-541>543-240600-
LAKESHORE

STATION/POSITION TIME  TEMP    WIND        PRES    VSBY  WAVE
                       AIR SEA DIR/SP/G                  HT/PER
                 (UTC) (F)     (DEG/KT/KT) (MB)    (MI)  (FT/S)
SHEBOYGAN LKSHOR 0500   62     190/ 16/ 19 1013.2R
KEWAUNEE LKSHORE 0400   54     170/  9/ 10 1011.6F
ALGOMA MARINA    0416          220/ 11/ 13   N/A
NORTHPORT PIER   0400   62     160/  6/ 12 1011.9S
N MID LAKE BUOY  0450   48 44  180/ 10/ 10 1012.0F         2/ 4
SISTER BAY LKSHO 0420   65     180/ 17/ 19   N/A
CHAMBERS ISLAND  0400   62     170/  5/  8 1011.5F
MENOMINEE LKSHOR 0400   64     180/  7/  9 1010.4F
$$



USA.gov is the U.S. government's official web portal to all federal, state and local government web resources and services.